Location: Blue Mountain Vista Observatory
(40.6992°N, 75.9422°W)
Time: 16:39:17
(UTC-04:00)

IDEFIX/ARIANE 42P - Visible Passes

Search period start: 25 May 2018 00:00
Search period end: 04 June 2018 00:00
Orbit: 786 x 802 km, 98.3° (Epoch: 24 May)

Date Brightness Start Highest point End Pass type
(mag) Time Alt. Az. Time Alt. Az. Time Alt. Az.
25 May 4.9 05:02:14 10° NE 05:06:27 24° E 05:10:39 10° SSE visible
26 May 5.4 04:35:31 10° ENE 04:37:50 13° E 04:40:09 10° ESE visible
29 May 5.2 04:49:04 10° NE 04:52:38 18° E 04:56:10 10° SE visible
02 Jun 5.3 04:36:15 10° ENE 04:38:46 13° E 04:41:17 10° ESE visible
